• In Lithuania
  • List of Countries
  • For 7 days
  • Water Temperature
  • Satellite Maps
  • Weather Map
  • Weather Widgets
  • user-avatar
    Login

    Hourly Weather Volodiivtsi

    Today, 26 September, Wednesday

    Time Temperature Precipitation Wind Pressure Humidity
    00:00 +5°C° 0 mm 5 mps 752 mmHg 74%
    01:00 +5°C° 0 mm 5 mps 752 mmHg 76%
    02:00 +3°C° 0 mm 5 mps 753 mmHg 78%
    03:00 +3°C° 0 mm 5 mps 753 mmHg 79%
    04:00 +4°C° 0 mm 4 mps 753 mmHg 81%
    05:00 +3°C° 0 mm 4 mps 754 mmHg 82%
    06:00 +3°C° 0 mm 5 mps 754 mmHg 78%
    07:00 +5°C° 0 mm 5 mps 754 mmHg 74%
    08:00 +4°C° 0 mm 6 mps 755 mmHg 70%
    09:00 +7°C° 0 mm 6 mps 755 mmHg 61%
    10:00 +8°C° 0 mm 6 mps 755 mmHg 51%
    11:00 +10°C° 0 mm 6 mps 756 mmHg 42%
    12:00 +10°C° 0 mm 6 mps 755 mmHg 41%
    13:00 +12°C° 0 mm 5 mps 755 mmHg 40%
    14:00 +12°C° 0 mm 5 mps 755 mmHg 39%
    15:00 +12°C° 0 mm 4 mps 755 mmHg 41%
    16:00 +12°C° 0 mm 4 mps 755 mmHg 43%
    17:00 +11°C° 0 mm 3 mps 754 mmHg 46%
    18:00 +10°C° 0 mm 3 mps 755 mmHg 50%
    19:00 +9°C° 0 mm 2 mps 755 mmHg 54%
    20:00 +8°C° 0 mm 1 mps 755 mmHg 58%
    21:00 +7°C° 0 mm 2 mps 754 mmHg 60%
    22:00 +6°C° 0 mm 2 mps 754 mmHg 62%
    23:00 +6°C° 0 mm 2 mps 754 mmHg 63%

    Tomorrow, 27 September, Thursday

    Time Temperature Precipitation Wind Pressure Humidity
    00:00 +6°C° 0 mm 2 mps 754 mmHg 64%
    01:00 +6°C° 0 mm 2 mps 753 mmHg 64%
    02:00 +5°C° 0 mm 3 mps 753 mmHg 65%
    03:00 +5°C° 0 mm 3 mps 753 mmHg 64%
    04:00 +5°C° 0 mm 3 mps 752 mmHg 63%
    05:00 +5°C° 0 mm 3 mps 752 mmHg 62%
    06:00 +6°C° 0 mm 4 mps 751 mmHg 58%
    07:00 +7°C° 0 mm 4 mps 751 mmHg 55%
    08:00 +8°C° 0 mm 5 mps 751 mmHg 51%
    09:00 +9°C° 0 mm 5 mps 750 mmHg 47%
    10:00 +11°C° 0 mm 6 mps 750 mmHg 43%
    11:00 +13°C° 0 mm 6 mps 750 mmHg 39%
    12:00 +13°C° 0 mm 6 mps 750 mmHg 40%
    13:00 +13°C° 0 mm 6 mps 749 mmHg 41%
    14:00 +14°C° 0 mm 5 mps 749 mmHg 41%
    15:00 +14°C° 0 mm 5 mps 749 mmHg 45%
    16:00 +14°C° 0 mm 5 mps 749 mmHg 48%
    17:00 +14°C° 0 mm 4 mps 748 mmHg 51%
    18:00 +13°C° 0 mm 4 mps 748 mmHg 56%
    19:00 +12°C° 0 mm 3 mps 748 mmHg 62%
    20:00 +11°C° 0 mm 3 mps 748 mmHg 67%
    21:00 +11°C° 0 mm 3 mps 748 mmHg 70%
    22:00 +10°C° 0 mm 3 mps 748 mmHg 72%
    23:00 +10°C° 0 mm 3 mps 748 mmHg 75%

    Day after tomorrow, 28 September, Friday

    Time Temperature Precipitation Wind Pressure Humidity
    00:00 +10°C° 0 mm 3 mps 748 mmHg 75%
    01:00 +10°C° 0 mm 3 mps 748 mmHg 76%
    02:00 +10°C° 0 mm 2 mps 748 mmHg 76%
    03:00 +9°C° 0 mm 2 mps 747 mmHg 76%
    04:00 +9°C° 0 mm 2 mps 747 mmHg 76%
    05:00 +9°C° 0 mm 2 mps 746 mmHg 77%
    06:00 +10°C° 0 mm 2 mps 746 mmHg 73%
    07:00 +12°C° 0 mm 2 mps 746 mmHg 69%
    08:00 +13°C° 0 mm 2 mps 746 mmHg 65%
    09:00 +14°C° 0 mm 3 mps 745 mmHg 60%
    10:00 +17°C° 0 mm 4 mps 745 mmHg 55%
    11:00 +19°C° 0 mm 4 mps 745 mmHg 50%
    12:00 +20°C° 0 mm 4 mps 744 mmHg 49%
    13:00 +21°C° 0 mm 4 mps 744 mmHg 47%
    14:00 +22°C° 0 mm 3 mps 743 mmHg 45%
    15:00 +22°C° 0 mm 3 mps 743 mmHg 48%
    16:00 +21°C° 0 mm 2 mps 742 mmHg 50%
    17:00 +21°C° 0 mm 2 mps 742 mmHg 53%
    18:00 +19°C° 0 mm 2 mps 742 mmHg 56%
    19:00 +18°C° 0 mm 2 mps 742 mmHg 59%
    20:00 +16°C° 0 mm 1 mps 742 mmHg 62%
    21:00 +16°C° 0 mm 1 mps 742 mmHg 63%
    22:00 +15°C° 0 mm 1 mps 742 mmHg 65%
    23:00 +15°C° 0 mm 1 mps 742 mmHg 66%

    29 September, Saturday

    Time Temperature Precipitation Wind Pressure Humidity
    00:00 +14°C° 0 mm 1 mps 742 mmHg 67%
    01:00 +14°C° 0 mm 1 mps 742 mmHg 69%
    02:00 +14°C° 0 mm 1 mps 742 mmHg 70%
    03:00 +13°C° 0 mm 1 mps 742 mmHg 71%
    04:00 +13°C° 0 mm 1 mps 742 mmHg 71%
    05:00 +13°C° 0 mm 2 mps 742 mmHg 72%
    06:00 +13°C° 0.1 mm 2 mps 743 mmHg 73%
    07:00 +14°C° 0.1 mm 2 mps 743 mmHg 73%
    08:00 +14°C° 0.1 mm 2 mps 743 mmHg 74%
    09:00 +14°C° 0.2 mm 2 mps 743 mmHg 75%
    10:00 +13°C° 0.2 mm 3 mps 744 mmHg 77%
    11:00 +13°C° 0.2 mm 3 mps 744 mmHg 79%
    12:00 +14°C° 0.2 mm 4 mps 744 mmHg 78%
    13:00 +14°C° 0.2 mm 4 mps 744 mmHg 78%
    14:00 +14°C° 0.2 mm 4 mps 744 mmHg 77%
    15:00 +14°C° 0.1 mm 5 mps 744 mmHg 79%
    16:00 +13°C° 0.1 mm 5 mps 744 mmHg 80%
    17:00 +13°C° 0.1 mm 5 mps 744 mmHg 82%
    18:00 +13°C° 0 mm 4 mps 745 mmHg 83%
    19:00 +12°C° 0 mm 4 mps 745 mmHg 84%
    20:00 +12°C° 0 mm 4 mps 746 mmHg 85%
    21:00 +12°C° 0 mm 4 mps 746 mmHg 85%
    22:00 +12°C° 0 mm 4 mps 746 mmHg 84%
    23:00 +12°C° 0 mm 4 mps 747 mmHg 84%

    30 September, Sunday

    Time Temperature Precipitation Wind Pressure Humidity
    00:00 +12°C° 0 mm 3 mps 747 mmHg 84%
    01:00 +12°C° 0 mm 3 mps 747 mmHg 84%
    02:00 +11°C° 0 mm 3 mps 747 mmHg 84%
    03:00 +11°C° 0 mm 3 mps 747 mmHg 85%
    04:00 +11°C° 0 mm 3 mps 748 mmHg 85%
    05:00 +11°C° 0 mm 3 mps 748 mmHg 86%
    06:00 +11°C° 0 mm 3 mps 748 mmHg 83%
    07:00 +11°C° 0 mm 4 mps 748 mmHg 81%
    08:00 +12°C° 0 mm 4 mps 748 mmHg 79%
    09:00 +13°C° 0 mm 4 mps 748 mmHg 72%
    10:00 +15°C° 0 mm 4 mps 748 mmHg 65%
    11:00 +18°C° 0 mm 4 mps 748 mmHg 59%
    12:00 +19°C° 0 mm 4 mps 748 mmHg 56%
    13:00 +19°C° 0 mm 4 mps 748 mmHg 53%
    14:00 +20°C° 0 mm 3 mps 747 mmHg 50%
    15:00 +19°C° 0 mm 3 mps 747 mmHg 52%
    16:00 +19°C° 0 mm 3 mps 747 mmHg 55%
    17:00 +18°C° 0 mm 3 mps 747 mmHg 57%
    18:00 +17°C° 0 mm 3 mps 747 mmHg 61%
    19:00 +14°C° 0 mm 3 mps 747 mmHg 64%
    20:00 +13°C° 0 mm 3 mps 747 mmHg 67%
    21:00 +12°C° 0 mm 3 mps 747 mmHg 66%
    22:00 +12°C° 0 mm 3 mps 747 mmHg 65%
    23:00 +11°C° 0 mm 3 mps 747 mmHg 64%

    1 October, Monday

    Time Temperature Precipitation Wind Pressure Humidity
    00:00 +11°C° 0 mm 3 mps 746 mmHg 64%
    01:00 +10°C° 0 mm 3 mps 746 mmHg 64%
    02:00 +10°C° 0 mm 2 mps 746 mmHg 64%
    03:00 +10°C° 0 mm 3 mps 746 mmHg 64%
    04:00 +10°C° 0 mm 3 mps 745 mmHg 65%
    05:00 +10°C° 0 mm 3 mps 745 mmHg 66%
    06:00 +10°C° 0 mm 3 mps 745 mmHg 64%
    07:00 +11°C° 0 mm 3 mps 745 mmHg 63%
    08:00 +12°C° 0 mm 3 mps 745 mmHg 61%
    09:00 +13°C° 0 mm 3 mps 745 mmHg 57%
    10:00 +16°C° 0 mm 3 mps 744 mmHg 53%
    11:00 +18°C° 0 mm 3 mps 744 mmHg 49%
    12:00 +18°C° 0.1 mm 3 mps 744 mmHg 49%
    13:00 +18°C° 0.1 mm 2 mps 744 mmHg 49%
    14:00 +19°C° 0.1 mm 1 mps 743 mmHg 49%
    15:00 +17°C° 0.2 mm 2 mps 743 mmHg 54%
    16:00 +16°C° 0.2 mm 2 mps 743 mmHg 60%
    17:00 +16°C° 0.2 mm 2 mps 742 mmHg 65%
    18:00 +15°C° 0 mm 2 mps 742 mmHg 66%
    19:00 +15°C° 0 mm 2 mps 743 mmHg 68%
    20:00 +13°C° 0 mm 3 mps 743 mmHg 70%
    21:00 +13°C° 0 mm 3 mps 742 mmHg 72%
    22:00 +13°C° 0 mm 2 mps 742 mmHg 74%
    23:00 +13°C° 0 mm 2 mps 742 mmHg 76%
    Show more